PROFILE

 METAR AND TAF INFORMATION
ADDS - METARS form results

(0550 UTC 21 September 2018)
http://aviationweather.gov/metar/data/
 
DAAG 210530Z 00000KT CAVOK 18/17 Q1018
DAAG 210500Z VRB02KT CAVOK 18/18 Q1017
TAF DAAG 210500Z 2106/2206 VRB02KT 9999 SCT046 SCT100 PROB30 TEMPO 2106/2108 5000 BR BKN015 PROB30 TEMPO 2108/2116 FEW026TCU BECMG 2111/2115 01010KT BECMG 2118/2121 VRB02KT PROB30 2121/2203 5000 BR BKN020 

 AIRPORT MAP

 RUNWAY INFORMATION
Runway 05 Runway length 11483 ft Runway width 197 ft
Runway elevation 72 ft Runway displaced threshold 0 ft Runway heading 53
Runway 23 Runway length 11483 ft Runway width 197 ft
Runway elevation 82 ft Runway displaced threshold 0 ft Runway heading 233
Runway 09 Runway length 11483 ft Runway width 148 ft
Runway elevation 56 ft Runway displaced threshold 0 ft Runway heading 92
Runway 27 Runway length 11483 ft Runway width 148 ft
Runway elevation 82 ft Runway displaced threshold 0 ft Runway heading 272

 AIRPORT FREQUENCIES
Type APP Name ALGER APP Frequency 121.4 MHZ
Type GND Name ALGER GND Frequency 121.8 MHZ
Type TWR Name ALGER TWR Frequency 118.7 MHZ

 AIRPORT NEAR NAVIGATION AIDS
Type VOR-DME Name Alger Frequency 112500 KHZ
Type NDB Name Houari Boumediene Frequency 416 KHZ
Type VOR Name Alger Frequency 113900 KHZ
Type NDB Name Houari Boumediene Frequency 370 KHZ